Detroit Metro, MI

9:52 PM EDT on May 27, 2018 (GMT -0400)
Detroit Metro Wayne County

Weather History for KDTW - October, 2011

Change the Weather History Date:

Friday, October 28, 2011

  Actual Average Record
Temperature  
Mean Temperature 43 °F 48 °F  
Max Temperature 52 °F 57 °F 78 °F (1927)
Min Temperature 33 °F 40 °F 21 °F (1976)
Degree Days  
Heating Degree Days 22 17  
Month to date heating degree days 264 345  
Since 1 July heating degree days 370 459  
Cooling Degree Days 0 0  
Month to date cooling degree days 6 7  
Year to date cooling degree days 1060 802  
Moisture  
Dew Point 34 °F    
Average Humidity 73    
Maximum Humidity 96    
Minimum Humidity 50    
Precipitation  
Precipitation 0.00 in 0.08 in 1.13 in (2015)
Month to date precipitation 2.11 2.28  
Year to date precipitation 38.88 27.98  
Snow  
Snow 0.00 in 0.00 in 2.00 in (1925)
Month to date snowfall 0.0 0.1  
Since 1 July snowfall 0.0 0.1  
Since 1 September snowfall 0.0 0.1  
Snow Depth 0.00 in    
Sea Level Pressure  
Sea Level Pressure 30.15 in    
Wind  
Wind Speed 3 mph (SE)    
Max Wind Speed 12 mph    
Max Gust Speed 16 mph    
Visibility 8 miles    
Events      
T = Trace of Precipitation, MM = Missing Value Source: NWS Daily Summary

Daily Weather History Graph

Daily Weather History Graph

Search for Another Location

Airport or City:

Astronomy

Oct. 28, 2011 Rise Set
Actual Time 8:01 AM EDT 6:32 PM EDT
Civil Twilight 7:32 AM EDT 7:01 PM EDT
Nautical Twilight 6:59 AM EDT 7:34 PM EDT
Astronomical Twilight 6:26 AM EDT 8:06 PM EDT
Moon 10:18 AM EDT 7:51 PM EDT
Length of Visible Light 11h 29m
Length of Day
10h 31m
Waxing Crescent, 5% of the Moon is Illuminated
Oct 28
Waxing Crescent
Nov 2
First Quarter
Nov 10
Full
Nov 18
Last Quarter
Nov 25
New

Hourly Weather History & Observations

Time (EDT) Temp. Windchill Dew Point Humidity Pressure Visibility Wind Dir Wind Speed Gust Speed Precip Events Conditions
12:53 AM 37.9 °F - 35.1 °F 89% 30.13 in 7.0 mi Calm Calm - N/A   Scattered Clouds
1:53 AM 35.1 °F - 33.1 °F 92% 30.14 in 6.0 mi Calm Calm - N/A   Scattered Clouds
2:53 AM 37.0 °F - 33.1 °F 86% 30.14 in 4.0 mi Calm Calm - N/A   Scattered Clouds
3:53 AM 35.6 °F - 32.0 °F 87% 30.13 in 4.0 mi Calm Calm - N/A   Scattered Clouds
4:53 AM 34.0 °F - 32.0 °F 92% 30.16 in 5.0 mi Calm Calm - N/A   Scattered Clouds
5:37 AM 33.8 °F - 30.2 °F 87% 30.15 in 4.0 mi Calm Calm - N/A   Scattered Clouds
5:53 AM 34.0 °F - 30.9 °F 89% 30.17 in 4.0 mi Calm Calm - N/A   Scattered Clouds
6:53 AM 35.1 °F - 32.0 °F 89% 30.18 in 4.0 mi Calm Calm - N/A   Mostly Cloudy
7:53 AM 34.0 °F - 30.9 °F 89% 30.19 in 6.0 mi Calm Calm - N/A   Mostly Cloudy
8:53 AM 35.1 °F - 32.0 °F 89% 30.21 in 5.0 mi Calm Calm - N/A   Mostly Cloudy
9:53 AM 42.1 °F - 36.0 °F 79% 30.21 in 6.0 mi Calm Calm - N/A   Haze
10:53 AM 46.0 °F - 37.9 °F 73% 30.21 in 8.0 mi Calm Calm - N/A   Mostly Cloudy
11:53 AM 48.9 °F - 37.0 °F 64% 30.21 in 10.0 mi Calm Calm - N/A   Scattered Clouds
12:53 PM 51.1 °F - 35.1 °F 54% 30.19 in 10.0 mi South 6.9 mph - N/A   Mostly Cloudy
1:53 PM 51.1 °F - 33.1 °F 50% 30.17 in 10.0 mi South 6.9 mph - N/A   Mostly Cloudy
2:53 PM 51.1 °F - 33.1 °F 50% 30.14 in 10.0 mi SSE 6.9 mph - N/A   Mostly Cloudy
3:53 PM 52.0 °F - 34.0 °F 50% 30.12 in 10.0 mi SE 5.8 mph - N/A   Mostly Cloudy
4:53 PM 50.0 °F - 34.0 °F 54% 30.12 in 10.0 mi East 5.8 mph - N/A   Mostly Cloudy
5:53 PM 48.9 °F - 34.0 °F 56% 30.12 in 10.0 mi SE 6.9 mph - N/A   Mostly Cloudy
6:53 PM 46.9 °F - 36.0 °F 66% 30.13 in 10.0 mi SE 5.8 mph - N/A   Mostly Cloudy
7:53 PM 46.4 °F 44.3 °F 35.6 °F 66% 30.11 in 10.0 mi ESE 4.6 mph - N/A   Mostly Cloudy
8:53 PM 45.0 °F 41.2 °F 36.0 °F 71% 30.13 in 10.0 mi ESE 6.9 mph - N/A   Mostly Cloudy
9:53 PM 45.0 °F 42.6 °F 35.1 °F 68% 30.12 in 10.0 mi SE 4.6 mph - N/A   Scattered Clouds
10:53 PM 43.0 °F - 35.1 °F 74% 30.12 in 9.0 mi Calm Calm - N/A   Mostly Cloudy
11:53 PM 39.9 °F - 34.0 °F 79% 30.10 in 10.0 mi Calm Calm - N/A   Mostly Cloudy